RH
89 58 38 28 29 30 31 31 30 29 28 32 36 38 36 36 39 43 42 46 61 58 58 56 51 49 47 54 51 49 69 80 69 58 49 46 58 52 56 68 84 94 81 76 83
66 48 30 28 28 27 28 27 27 26 25 27 32 35 35 38 49 54 38 43 42 50 51 61 69 60 65 56 52 62 80 72 55 51 50 48 52 56 81 78 89 92 87 84 82
34 27 27 26 26 26 26 25 24 24 23 24 30 30 32 43 54 34 31 33 36 41 43 54 59 54 62 53 54 53 71 53 48 44 44 46 48 48 71 77 91 89 96 88 79
36 31 29 28 27 25 24 22 21 22 22 24 29 29 34 45 37 28 30 32 33 35 40 46 56 62 67 69 58 64 49 47 49 46 48 53 44 48 60 72 84 88 87 89 87
30 28 23 22 22 22 21 20 21 23 22 24 29 31 38 41 31 26 30 30 31 35 40 48 61 68 79 78 68 64 43 44 44 48 49 48 47 47 55 90 90 89 94 92 91
25 23 21 22 23 23 22 23 23 22 20 23 30 35 47 32 23 27 28 28 30 34 40 44 51 59 71 72 74 52 53 53 48 45 45 48 44 62 66 88 83 89 94 98 88
26 22 22 25 25 24 24 22 21 20 19 23 32 46 52 33 23 26 26 28 30 33 41 40 47 58 62 76 58 59 68 55 49 43 42 45 44 68 75 92 94 89 89 91 90
26 25 26 26 26 26 24 23 23 21 18 24 31 51 47 25 26 24 24 27 28 29 34 35 44 55 63 59 58 66 50 71 45 38 39 35 52 41 89 86 97 92 82 90 95
30 30 29 27 26 24 22 22 26 20 21 29 42 43 33 22 24 23 28 30 29 30 33 39 43 54 57 67 69 58 68 57 48 38 33 37 46 68 89 88 91 84 81 84 89
28 28 27 27 25 24 20 28 27 24 33 35 41 32 23 26 27 26 28 30 35 39 39 50 56 54 57 64 79 69 64 52 61 38 34 36 42 78 89 85 84 89 94 96 95
22 24 25 27 25 26 19 24 34 35 32 29 28 27 30 24 28 29 30 30 34 36 46 44 57 61 54 54 54 60 52 53 43 37 42 38 38 36 89 85 95 94 91 86 88
15 14 20 25 30 31 24 59 57 62 60 42 39 32 30 32 40 32 28 37 42 48 47 54 51 44 50 43 47 46 52 57 50 43 43 38 37 32 88 76 70 91 95 95 98
15 15 18 24 34 41 37 51 54 64 70 48 35 30 27 32 39 37 32 39 43 44 47 56 42 42 46 42 53 53 52 57 61 54 40 40 37 31 69 72 73 64 75 89 91
15 14 16 23 33 50 52 47 54 60 58 34 27 28 26 34 30 33 33 37 35 40 49 49 39 41 48 40 50 63 44 51 58 62 62 43 51 36 37 51 79 81 82 93 96
18 15 16 25 36 45 44 47 50 60 41 23 24 24 28 31 31 26 34 36 39 40 45 29 44 48 50 38 49 53 50 58 55 58 53 48 54 36 36 38 42 81 90 90 92
20 18 16 29 44 52 44 51 55 57 35 22 25 26 27 32 32 29 32 35 35 38 37 49 42 46 41 47 44 46 54 52 66 70 76 55 52 44 39 31 32 34 48 76 91
21 20 25 31 42 48 48 59 59 56 19 17 21 26 30 30 29 27 27 36 33 34 35 39 33 36 39 39 38 56 65 76 69 79 70 53 58 38 34 31 33 35 43 70 82
21 22 38 45 48 47 58 33 20 15 22 26 26 28 28 26 23 26 27 36 33 33 44 57 46 30 34 41 48 56 56 78 62 72 69 52 40 43 37 38 37 36 38 41 78
20 35 52 61 52 49 48 47 27 30 28 27 23 25 20 27 27 22 22 34 34 30 25 45 31 28 36 39 40 43 63 46 61 62 66 60 38 34 32 35 36 36 35 36 41
23 52 63 59 46 56 46 38 33 29 32 31 21 21 23 19 22 22 22 27 37 31 32 32 46 29 32 36 42 40 46 54 68 55 66 63 54 64 38 32 36 34 37 40 41
44 39 62 51 47 63 44 43 37 30 34 32 29 28 23 24 26 23 20 26 32 36 32 34 38 33 24 29 34 39 50 46 50 60 65 72 60 45 38 32 35 37 37 39 38
44 29 56 52 42 80 60 44 32 29 37 36 34 32 30 28 28 25 21 28 30 32 32 34 44 49 25 27 38 37 39 42 50 40 51 52 54 26 30 29 27 26 29 32 34
50 56 60 57 29 50 48 36 30 33 35 39 37 35 31 32 27 26 25 29 31 33 32 32 32 40 34 26 21 32 32 37 42 56 61 51 43 27 29 24 22 31 31 34 34
55 38 60 73 64 46 37 32 33 37 35 33 35 30 33 36 35 34 29 27 30 35 41 36 44 35 39 27 29 41 37 32 36 65 52 49 36 26 25 27 23 25 30 36 37
60 37 51 38 56 54 50 43 40 33 36 34 31 35 36 39 35 33 29 33 29 36 47 44 52 51 47 38 43 46 46 46 57 46 49 36 38 29 27 26 24 28 34 36 35
59 47 69 48 48 52 44 39 36 38 33 33 38 38 34 38 34 39 36 37 35 37 50 57 54 57 59 50 50 50 45 46 43 43 48 43 42 34 36 34 35 35 37 34 34
69 66 38 31 48 43 39 37 38 36 31 34 33 30 31 31 35 38 38 37 32 35 50 57 67 63 49 41 42 44 31 29 36 51 40 54 48 52 53 48 44 46 41 37 36
Wind_Speed
8 6 6 6 7 8 9 11 13 14 15 17 17 18 17 16 8 5 3 7 8 12 13 16 14 17 9 2 5 3 3 3 3 3 5 6 7 6 9 4 4 2 4 6 26
7 6 6 6 7 8 10 11 13 14 16 17 17 17 18 12 6 3 7 9 11 12 15 11 8 12 3 2 2 3 3 6 6 7 8 7 6 6 7 5 1 6 3 26 27
7 7 7 8 9 9 11 12 13 14 15 17 17 17 17 8 1 3 12 13 10 10 12 14 10 3 3 3 2 3 5 9 12 12 10 7 9 2 5 4 1 2 14 18 23
7 8 9 9 10 11 12 12 14 15 15 16 16 16 11 4 4 5 12 13 13 10 9 9 6 4 4 5 4 3 8 9 9 9 7 6 5 6 4 5 3 9 17 13 14
9 9 9 9 10 11 11 13 13 14 15 15 14 15 4 4 4 10 11 13 13 8 5 3 3 3 2 5 6 4 4 6 8 8 7 8 10 5 7 6 3 10 10 20 17
10 10 10 10 10 11 12 13 15 15 14 13 12 11 2 3 7 9 12 14 12 7 4 2 2 5 5 5 2 4 8 14 8 8 5 6 6 1 4 7 7 9 12 11 14
10 10 11 12 12 13 14 15 15 14 11 10 9 7 1 6 7 13 13 13 11 9 3 5 3 0 2 6 3 7 7 8 6 5 4 3 7 6 4 6 7 8 5 12 13
11 12 13 14 15 16 16 16 16 12 8 6 5 4 5 7 9 18 13 16 13 14 8 8 5 3 3 5 8 6 2 6 6 1 5 7 8 8 7 8 7 11 7 6 12
12 14 16 17 19 17 18 18 11 4 2 4 1 1 7 9 6 18 11 11 20 7 6 2 1 2 6 4 5 5 5 9 9 1 1 5 7 5 4 7 6 4 3 2 6
12 14 16 18 16 19 19 8 3 2 1 1 3 2 3 5 11 15 10 14 4 10 5 4 4 2 3 6 4 8 5 6 5 7 2 3 6 1 4 9 7 5 3 6 9
14 14 14 17 14 17 18 2 7 3 4 2 4 3 6 15 6 5 9 10 5 5 6 5 6 4 8 4 6 5 3 5 6 4 7 4 5 5 7 5 6 6 10 12 17
15 16 15 15 10 14 11 6 2 1 6 4 4 5 6 2 4 4 13 5 5 4 7 6 3 5 7 3 5 3 3 6 9 7 3 3 7 3 8 6 7 7 6 10 6
17 17 15 16 5 8 16 7 2 0 0 5 3 3 5 1 3 5 5 1 3 4 4 3 5 7 4 4 7 5 2 4 5 9 1 5 4 4 5 2 1 4 4 7 12
17 17 15 12 1 5 4 6 3 1 4 3 2 3 1 1 3 3 1 2 4 4 5 5 3 5 8 3 2 4 3 3 7 6 3 5 2 3 4 4 5 5 6 7 9
14 15 14 9 4 2 4 5 2 1 4 2 2 2 2 1 4 2 1 2 2 4 4 5 7 7 5 6 3 8 10 5 2 2 2 9 5 7 5 7 5 3 4 6 9
14 13 11 5 3 2 5 4 3 5 4 2 1 3 4 1 2 4 1 2 1 3 2 6 4 1 3 8 3 9 5 5 5 3 4 6 4 5 2 2 0 1 4 6 8
15 13 9 6 2 5 4 1 5 4 3 3 2 2 1 3 4 2 4 5 3 6 7 7 5 5 2 6 6 10 7 4 6 5 3 6 4 5 6 5 4 3 7 7 4
14 13 7 5 4 4 1 4 2 3 3 2 2 2 2 2 2 3 1 2 1 2 1 3 8 6 6 2 3 4 3 3 2 3 5 6 4 4 4 3 4 4 3 4 2
13 7 4 3 4 4 4 2 6 4 2 4 5 2 2 1 1 5 2 3 1 1 2 4 6 5 2 2 2 6 5 1 1 2 2 4 5 5 2 2 3 4 3 2 3
9 5 2 4 2 2 4 6 2 1 3 1 1 1 2 3 3 4 2 1 2 1 2 1 5 2 5 2 1 2 2 4 3 4 4 5 5 4 4 5 4 5 7 8 7
4 3 2 3 1 4 2 6 3 1 2 2 2 3 2 3 2 2 4 1 2 2 1 1 2 7 4 5 4 5 3 4 3 3 1 4 6 6 4 6 5 5 6 8 9
3 2 4 3 3 1 2 3 2 3 1 2 1 2 2 2 3 2 3 1 0 2 1 0 3 4 8 5 4 1 1 3 3 5 1 3 6 2 2 5 3 5 7 9 6
3 2 2 2 1 3 5 3 1 1 2 2 2 2 1 1 2 3 3 2 1 3 2 2 1 4 9 5 3 3 1 3 2 2 5 3 5 0 7 12 13 8 9 9 8
3 1 3 3 1 2 2 3 2 2 2 2 2 2 2 2 3 4 2 2 1 3 3 3 4 8 6 8 1 5 4 4 3 2 4 9 13 18 18 15 17 11 8 6 7
2 3 3 1 2 3 1 2 2 2 1 1 1 0 1 3 4 4 2 5 3 3 3 4 5 3 6 9 4 10 14 8 9 9 6 8 9 15 17 18 18 8 6 6 5
4 3 1 2 1 3 2 2 1 3 2 1 2 4 2 3 4 9 2 3 6 2 3 2 4 3 4 9 10 14 12 13 12 6 9 13 16 6 12 10 9 9 7 5 4
2 1 4 1 1 3 4 3 3 1 1 1 3 2 4 5 3 8 8 8 9 7 4 4 4 2 6 1 4 8 3 2 8 8 3 4 6 15 16 17 14 17 10 8 7
Wind_Direction
1 6 5 358 350 353 357 358 357 354 355 354 354 353 353 350 353 9 340 348 322 342 348 343 349 336 334 250 198 128 245 257 269 274 263 308 347 315 290 180 78 172 176 165 140
5 4 1 349 340 340 340 343 344 349 351 352 350 351 348 342 352 295 353 356 354 349 342 336 319 326 320 274 266 136 173 234 219 238 274 292 295 298 335 300 145 115 89 134 141
15 6 356 345 337 334 332 334 337 343 345 349 348 350 349 345 11 293 350 345 351 341 329 321 309 306 316 306 292 237 228 241 255 258 257 273 289 266 302 295 102 181 139 142 144
13 2 349 341 336 333 328 328 333 336 340 343 347 346 352 16 34 317 327 330 334 330 344 343 351 12 328 322 296 303 247 251 263 265 267 242 263 294 207 269 154 124 147 156 162
4 2 353 352 346 337 332 328 329 331 334 338 341 346 1 12 266 336 323 324 323 308 336 336 12 354 323 283 319 235 273 282 271 270 250 246 259 244 267 175 168 135 167 172 167
7 9 4 357 350 341 331 326 322 325 328 332 336 347 18 14 321 341 328 329 328 308 274 270 262 250 265 253 194 268 287 279 260 261 259 254 265 231 253 177 211 184 164 191 168
6 5 359 349 342 335 328 321 316 314 315 324 330 352 46 240 311 340 333 326 316 297 263 250 243 318 313 292 269 276 295 299 272 205 213 188 299 236 188 162 130 142 142 204 181
9 3 355 347 341 334 327 319 312 303 297 306 318 341 250 311 294 327 329 320 329 316 259 260 243 239 202 285 324 340 344 345 297 137 225 136 270 287 177 149 117 100 77 8 3
7 2 357 351 342 338 333 323 310 301 279 300 318 10 292 326 325 331 325 308 318 328 302 206 126 279 347 357 352 4 310 324 327 97 157 155 251 339 114 128 135 192 92 338 321
353 351 351 352 348 343 340 341 357 341 19 260 263 341 291 305 315 315 316 314 292 327 29 44 37 16 20 35 318 294 336 319 301 340 316 271 281 288 190 145 176 173 182 157 202
356 351 349 349 352 356 352 355 17 357 6 217 282 265 302 321 313 314 332 335 7 48 9 345 36 337 297 271 246 256 270 318 297 292 3 305 279 240 209 189 182 192 188 204 204
353 352 348 348 350 13 22 62 68 217 319 302 243 274 277 349 310 307 355 38 31 353 345 13 310 282 293 355 330 355 357 325 303 297 325 281 264 263 174 204 192 184 176 153 126
351 352 351 346 355 15 55 59 19 278 228 304 231 261 274 69 291 285 26 342 10 344 346 219 264 323 5 341 1 317 275 306 268 312 303 333 351 35 240 306 207 252 166 184 163
350 351 351 354 61 10 55 14 350 304 49 273 290 297 310 266 292 247 19 88 1 313 324 258 300 344 334 314 41 302 225 289 303 16 320 21 304 21 352 273 207 232 213 174 152
346 348 347 7 351 44 339 345 351 292 21 245 259 287 327 289 309 338 17 38 306 294 57 278 334 348 332 303 330 258 316 290 291 347 9 345 70 300 19 25 45 195 249 250 200
339 339 341 341 356 340 338 332 97 41 259 360 282 337 2 330 283 306 326 31 268 350 315 256 284 255 266 308 282 296 4 35 34 32 34 319 83 311 336 331 138 354 337 210 178
331 330 327 320 324 311 337 56 37 136 321 327 313 356 7 285 319 351 347 5 22 16 354 332 326 312 354 344 357 14 28 1 8 10 244 333 27 248 314 348 357 2 355 349 175
326 321 315 316 307 322 354 42 156 238 269 352 281 294 245 11 264 311 328 321 2 78 59 37 330 355 343 110 274 327 72 117 358 340 291 332 358 303 303 342 10 22 14 27 110
328 320 323 326 335 338 74 59 215 201 277 350 324 306 301 258 273 23 15 200 223 38 40 9 290 315 268 315 87 320 41 200 113 294 4 300 311 315 318 51 93 89 65 22 313
340 328 14 330 356 64 74 239 237 344 315 113 240 355 303 302 332 19 298 193 159 79 100 281 302 268 297 342 333 116 246 22 14 21 332 316 301 243 289 289 319 314 336 340 323
11 23 357 339 338 59 178 239 290 310 288 220 232 293 303 299 324 290 272 5 128 173 88 190 137 292 353 30 311 345 23 42 112 127 114 325 276 225 219 297 244 326 308 283 290
70 356 5 340 28 63 194 216 341 304 320 295 159 225 248 313 295 283 273 262 360 133 20 258 159 280 267 278 251 199 99 94 100 296 96 162 272 302 200 64 12 340 296 292 276
124 237 39 16 257 300 303 297 245 260 277 276 295 234 283 256 297 220 290 242 221 185 183 184 289 320 331 358 349 75 250 131 127 91 206 163 259 54 314 329 314 295 300 305 312
97 356 329 61 160 188 306 281 257 164 288 299 307 10 338 289 249 288 297 326 273 224 184 149 200 195 207 242 192 287 224 228 185 208 216 230 272 290 299 300 305 309 284 291 298
69 228 194 244 272 199 249 257 279 291 196 358 305 175 311 309 319 260 259 324 276 270 172 153 232 221 244 267 251 262 274 248 202 221 213 272 254 296 308 300 298 284 295 309 340
144 148 21 168 291 196 216 245 300 322 333 327 190 333 239 226 235 288 295 186 246 302 195 178 256 292 250 245 264 279 263 256 254 223 240 261 293 338 304 316 315 308 294 295 324
202 113 108 275 135 122 231 191 153 58 302 37 123 354 292 255 256 243 227 240 239 237 207 189 186 85 283 291 298 297 285 136 72 36 283 47 349 335 344 344 357 1 335 320 329